Wetbulb
72.76 71.13 69.38 70.34 69.56 68.60 67.85 67.05 67.87 67.95 67.28 67.15 66.51 66.19 66.98 65.74 69.00 70.08 68.68 69.73 70.73 71.44
69.51 69.09 68.09 68.62 68.33 66.60 66.74 65.11 65.54 64.99 64.91 64.94 64.57 64.80 65.42 64.03 65.39 66.70 66.44 66.78 68.66 66.59
66.53 65.98 65.52 65.10 63.55 63.41 63.44 62.53 62.02 61.94 61.74 61.60 61.48 61.72 62.27 62.15 63.33 63.38 62.01 61.63 64.56 64.86
62.52 62.44 62.15 61.52 61.31 61.35 61.03 60.47 59.66 59.46 59.00 58.91 59.00 59.59 59.71 59.61 58.64 58.61 59.81 60.70 60.47 60.93
60.30 60.56 59.86 59.03 58.88 58.55 58.13 58.10 56.53 56.38 55.59 55.13 55.57 56.10 55.80 55.17 55.37 55.43 55.67 55.63 55.70 55.59
59.43 59.07 58.43 57.86 57.60 56.95 55.70 55.15 55.12 55.15 54.85 55.45 55.85 55.89 55.10 53.50 53.25 54.00 54.71 55.35 55.67 55.66
56.88 56.58 55.62 55.29 55.50 55.17 55.41 55.02 55.06 55.30 55.13 55.36 55.34 53.14 50.91 50.52 51.23 52.25 53.20 54.08 54.16 53.75
53.57 54.30 53.77 54.41 54.53 55.02 54.70 54.03 54.13 54.08 54.57 54.76 54.61 48.59 47.88 48.91 49.87 51.08 52.31 52.18 51.12 51.22
52.86 53.16 52.98 53.57 53.95 53.97 53.64 53.91 53.72 53.46 53.19 53.37 50.96 43.79 43.86 45.49 48.45 50.03 50.02 50.28 49.80 50.22
52.56 52.85 53.52 54.16 53.61 52.99 52.95 53.37 52.75 52.87 52.67 52.00 48.44 43.66 43.54 44.46 49.98 50.63 51.04 51.37 51.07 50.19
52.58 52.94 53.45 53.01 52.10 52.08 52.11 51.81 51.76 51.74 51.66 51.17 49.95 44.08 43.25 44.18 50.90 50.56 50.72 50.60 50.91 51.01
52.66 52.44 52.02 51.17 51.31 50.42 50.81 50.90 51.27 51.85 51.38 51.17 51.65 44.96 43.06 45.16 48.85 48.96 49.61 50.80 51.41 50.82
52.33 51.85 50.60 50.63 50.04 49.94 50.80 50.90 50.64 50.66 51.47 49.30 50.88 45.15 43.12 44.80 48.84 48.67 48.57 49.46 50.61 48.34
51.82 50.94 50.26 50.04 49.69 50.06 50.20 49.29 49.52 49.73 50.37 51.68 50.55 50.88 42.44 41.85 46.93 45.48 44.84 46.64 49.17 51.29
MSLP
1010.07 1010.35 1010.76 1011.15 1010.84 1010.99 1011.16 1012.00 1012.28 1012.04 1012.22 1012.08 1011.94 1011.86 1011.73 1011.43 1010.73 1010.66 1010.44 1010.32 1010.61 1010.12
1011.01 1011.30 1011.64 1012.00 1011.93 1012.22 1012.51 1012.43 1012.21 1012.39 1012.50 1012.66 1012.57 1012.17 1012.02 1011.35 1011.09 1010.81 1010.80 1010.84 1010.29 1009.80
1011.84 1012.12 1012.54 1012.93 1013.30 1013.37 1013.51 1013.05 1012.78 1012.74 1012.80 1012.87 1012.77 1012.62 1012.58 1012.22 1011.82 1011.57 1011.33 1011.12 1010.57 1010.17
1012.73 1013.09 1013.46 1013.74 1013.90 1013.92 1013.81 1013.55 1013.48 1013.43 1013.06 1013.10 1012.76 1012.77 1013.12 1012.98 1012.33 1011.83 1011.72 1011.36 1010.92 1010.43
1013.56 1013.96 1014.39 1014.69 1014.73 1014.61 1014.33 1014.41 1014.55 1014.40 1014.03 1013.57 1013.33 1013.30 1013.41 1013.07 1012.84 1012.33 1011.83 1011.71 1011.34 1010.82
1014.21 1014.46 1014.80 1015.03 1015.18 1015.07 1014.98 1015.02 1014.87 1014.71 1014.39 1013.79 1013.84 1013.53 1014.13 1013.82 1013.67 1013.09 1012.50 1011.94 1011.44 1011.18
1015.17 1015.29 1015.28 1015.57 1015.48 1015.61 1015.29 1015.31 1015.15 1014.88 1014.41 1014.41 1014.12 1014.59 1014.97 1014.49 1014.08 1013.31 1012.70 1012.34 1012.08 1011.73
1015.68 1015.25 1015.30 1015.69 1016.08 1016.02 1015.83 1015.69 1015.47 1014.76 1014.68 1014.74 1014.39 1015.58 1015.69 1015.22 1014.49 1013.79 1012.99 1012.80 1012.66 1012.28
1015.16 1015.48 1016.37 1016.37 1016.14 1016.13 1015.96 1015.75 1015.46 1015.25 1015.10 1014.94 1015.27 1016.03 1016.32 1016.21 1015.27 1014.27 1013.52 1013.03 1012.70 1012.34
1015.72 1015.92 1016.27 1016.32 1016.37 1016.37 1016.14 1016.00 1015.71 1015.61 1015.57 1015.40 1016.05 1016.27 1016.48 1016.20 1015.09 1014.22 1013.47 1012.89 1012.38 1011.93
1016.17 1016.28 1016.57 1016.58 1016.60 1016.64 1016.53 1016.42 1016.15 1015.95 1015.96 1015.86 1015.89 1016.11 1016.07 1015.76 1014.78 1014.11 1013.60 1013.03 1012.41 1011.81
1016.71 1016.77 1016.97 1016.90 1016.95 1017.17 1016.99 1016.57 1016.24 1016.08 1015.93 1015.72 1015.54 1015.73 1015.83 1015.56 1014.60 1013.77 1013.08 1012.42 1011.96 1011.56
1017.35 1017.37 1017.37 1017.45 1017.58 1017.57 1017.13 1016.70 1016.65 1016.29 1015.94 1015.83 1015.69 1015.64 1015.75 1015.42 1014.58 1013.66 1012.99 1012.43 1011.76 1010.89
1017.83 1017.68 1017.96 1018.07 1018.06 1017.73 1017.21 1017.07 1016.85 1016.52 1016.04 1015.46 1015.50 1015.50 1015.85 1015.92 1015.20 1014.76 1013.93 1012.84 1011.62 1010.98
Wind_Speed
7 5 7 9 7 7 5 6 5 7 7 7 7 7 8 8 7 8 7 8 11 8
11 10 9 7 4 5 6 3 7 7 7 8 9 9 10 8 8 7 9 10 10 8
11 11 9 8 8 6 5 6 6 6 6 7 8 9 10 10 10 10 8 10 11 11
11 11 9 8 7 7 7 8 8 8 7 8 8 9 9 10 12 12 11 11 12 13
10 10 9 7 8 8 9 9 10 10 10 10 10 10 10 11 12 13 13 14 14 15
9 8 8 7 7 7 7 6 7 8 8 9 9 8 10 11 12 12 13 13 14 15
7 8 9 8 8 8 7 7 7 7 7 8 9 10 12 13 13 13 13 14 12 12
8 8 10 10 7 7 8 8 8 9 9 8 7 9 12 13 14 13 13 13 13 13
9 9 6 5 6 7 9 10 9 9 9 8 8 10 10 11 12 11 11 11 12 12
8 7 6 6 7 8 8 9 9 9 9 8 7 5 3 7 11 11 11 12 11 11
8 7 7 8 9 8 8 7 7 7 8 7 4 2 5 11 13 12 14 13 13 13
7 7 7 9 8 8 7 7 7 8 9 9 10 7 6 12 12 11 14 14 15 14
7 7 8 9 7 7 7 8 8 8 10 8 9 6 2 9 11 15 13 16 14 15
7 6 6 6 6 6 8 8 9 9 8 7 9 11 13 12 13 12 13 12 13 12
Wind_Direction
62 71 60 39 40 36 59 47 18 28 18 8 9 354 350 323 340 343 328 299 286 293
75 68 73 76 99 80 18 99 43 30 8 357 353 354 350 321 329 337 326 312 301 312
87 82 77 71 66 55 39 36 28 20 8 341 345 344 348 338 333 321 315 310 325 306
76 74 66 59 46 36 23 11 2 351 350 328 335 344 334 322 303 320 309 310 306 313
81 71 61 47 34 19 11 7 351 343 348 342 342 343 328 317 324 318 324 319 315 312
70 70 55 35 19 6 9 352 345 339 337 350 342 345 0 345 329 325 321 318 320 319
57 50 39 18 13 356 5 4 354 357 360 356 346 34 355 344 334 330 327 322 327 320
34 35 32 18 14 9 18 5 356 -0 359 357 4 30 6 350 340 327 330 334 334 318
27 34 18 7 19 15 9 6 359 3 354 354 48 54 16 343 326 331 318 327 323 319
17 26 18 20 18 11 8 4 359 359 359 -0 92 76 3 323 316 330 328 327 324 317
18 24 14 13 16 9 5 354 347 7 356 357 12 108 352 331 343 327 329 324 313 309
18 15 11 10 11 14 350 3 345 0 358 347 335 22 11 335 325 323 323 322 323 317
15 11 14 11 9 6 338 26 349 353 2 348 333 10 295 343 336 329 331 323 315 283
15 1 25 10 10 351 0 3 359 349 327 349 5 359 36 14 348 342 326 318 322 328